This is the latest recevied weather packets stored in our database for station/object N9XRG. If no packets are shown the sender has not sent any weather packets the latest 10 day(s).
| Time | Temp. | Humidity | Pressure | Rain* | Wind** | Luminosity | Snow |
|---|---|---|---|---|---|---|---|
| 1778077318 | 13.89° C | 46% | 1012.9 hPa | 0 mm | - | 689 W/m² | - |
| 1778077016 | 13.33° C | 46% | 1012.7 hPa | 0 mm | - | 469 W/m² | - |
| 1778076714 | 12.78° C | 47% | 1012.7 hPa | 0 mm | - | 619 W/m² | - |
| 1778076411 | 12.78° C | 48% | 1012.9 hPa | 0 mm | - | 592 W/m² | - |
| 1778076108 | 12.22° C | 50% | 1012.9 hPa | 0 mm | - | 572 W/m² | - |
| 1778075805 | 12.78° C | 47% | 1012.4 hPa | 0 mm | - | 549 W/m² | - |
| 1778075501 | 12.78° C | 51% | 1012.7 hPa | 0 mm | - | 337 W/m² | - |
| 1778075198 | 12.78° C | 51% | 1012.7 hPa | 0 mm | - | 552 W/m² | - |
| 1778074894 | 12.78° C | 53% | 1012.6 hPa | 0 mm | - | 504 W/m² | - |
| 1778074591 | 12.22° C | 53% | 1012.9 hPa | 0 mm | - | 463 W/m² | - |
| 1778074288 | 11.67° C | 51% | 1012.7 hPa | 0 mm | - | 363 W/m² | - |
| 1778073985 | 12.22° C | 51% | 1012.6 hPa | 0 mm | - | 448 W/m² | - |
| 1778073682 | 12.22° C | 56% | 1012.7 hPa | 0 mm | - | 465 W/m² | - |
| 1778073380 | 11.67° C | 56% | 1012.6 hPa | 0 mm | - | 446 W/m² | - |
| 1778073076 | 11.67° C | 59% | 1012.5 hPa | 0 mm | - | 426 W/m² | - |
| 1778072773 | 11.67° C | 57% | 1012.5 hPa | 0 mm | - | 319 W/m² | - |
| 1778072471 | 11.67° C | 57% | 1012.3 hPa | 0 mm | - | 339 W/m² | - |
| 1778072169 | 11.11° C | 61% | 1012.3 hPa | 0 mm | - | 343 W/m² | - |
| 1778071866 | 10° C | 67% | 1012 hPa | 0 mm | - | 307 W/m² | - |
| 1778071564 | 9.44° C | 71% | 1012.4 hPa | 0 mm | - | 302 W/m² | - |
| 1778071261 | 8.89° C | 75% | 1012.1 hPa | 0 mm | - | 87 W/m² | - |
| 1778070959 | 8.89° C | 72% | 1011.9 hPa | 0 mm | - | 130 W/m² | - |
| 1778070657 | 8.89° C | 71% | 1011.9 hPa | 0 mm | - | 142 W/m² | - |
| 1778070353 | 8.89° C | 73% | 1012 hPa | 0 mm | - | 138 W/m² | - |
| 1778070052 | 8.89° C | 76% | 1012.1 hPa | 0 mm | - | 127 W/m² | - |
* Rain latest hour (hover to see other rain measurements)
** Current wind speed in m/s (hover to see current wind gust speed)